Weather History for Walterboro, SC

Change the Weather History Date:

Saturday, March 1, 2014

  Actual Average Record
Temperature  
Mean Temperature 52 °F -  
Max Temperature 62 °F 65 °F 69 °F (2012)
Min Temperature 41 °F 38 °F 37 °F (2013)
Degree Days  
Heating Degree Days 14    
Growing Degree Days 2 (Base 50)    
Moisture  
Dew Point 43 °F    
Average Humidity 79    
Maximum Humidity 100    
Minimum Humidity 52    
Precipitation  
Precipitation 0.00 in - - ()
Sea Level Pressure  
Sea Level Pressure 30.25 in    
Wind  
Wind Speed 0 mph (NE)    
Max Wind Speed 10 mph    
Max Gust Speed -    
Visibility 10 miles    
Events      
Averages and records for this station are not official NWS values.
T = Trace of Precipitation, MM = Missing Value Source: NWS Daily Summary

Daily Weather History Graph

Daily Weather History Graph

Search for Another Location

Airport:

Trip Planner

Search our weather history database for the weather conditions in past years. The results will help you decide how hot, cold, wet, or windy it might be!

Date:

Astronomy

Mar. 01, 2014 Rise Set
Actual Time 6:50 AM EST 6:19 PM EST
Civil Twilight 6:25 AM EST 6:44 PM EST
Nautical Twilight 5:57 AM EST 7:13 PM EST
Astronomical Twilight 5:28 AM EST 7:41 PM EST
Moon 6:46 AM EST (3/1) 7:00 PM EST (3/1)
Length of Visible Light 12h 18m
Length of Day
11h 29m
New Moon, 0% of the Moon is Illuminated
Mar 1
New Moon
Mar 8
First Quarter
Mar 16
Full
Mar 23
Last Quarter
Mar 30
New

Hourly Weather History & Observations

Time (EST) Temp. Windchill Dew Point Humidity Pressure Visibility Wind Dir Wind Speed Gust Speed Precip Events Conditions
12:15 AM 44.6 °F - 42.8 °F 93% 30.21 in 10.0 mi Calm Calm - N/A   Overcast
12:35 AM 44.6 °F - 41.0 °F 87% 30.22 in 10.0 mi Calm Calm - N/A   Overcast
12:55 AM 42.8 °F - 42.8 °F 100% 30.22 in 10.0 mi Calm Calm - N/A   Mostly Cloudy
1:15 AM 44.6 °F - 42.8 °F 93% 30.24 in 10.0 mi Calm Calm - N/A   Overcast
1:35 AM 44.6 °F - 42.8 °F 93% 30.24 in 10.0 mi Calm Calm - N/A   Overcast
1:55 AM 44.6 °F - 42.8 °F 93% 30.22 in 10.0 mi Calm Calm - N/A   Overcast
2:15 AM 44.6 °F - 42.8 °F 93% 30.22 in 10.0 mi Calm Calm - N/A   Overcast
2:35 AM 44.6 °F - 44.6 °F 100% 30.21 in 10.0 mi Calm Calm - N/A   Overcast
2:55 AM 44.6 °F - 44.6 °F 100% 30.20 in 10.0 mi Calm Calm - N/A   Overcast
3:15 AM 44.6 °F - 44.6 °F 100% 30.20 in 10.0 mi Calm Calm - N/A   Overcast
3:35 AM 44.6 °F - 44.6 °F 100% 30.21 in 10.0 mi Calm Calm - N/A   Overcast
3:55 AM 44.6 °F - 42.8 °F 93% 30.20 in 10.0 mi Calm Calm - N/A   Overcast
4:15 AM 44.6 °F - 42.8 °F 93% 30.21 in 10.0 mi Calm Calm - N/A   Overcast
4:35 AM 44.6 °F - 42.8 °F 93% 30.21 in 10.0 mi Calm Calm - N/A   Overcast
4:55 AM 44.6 °F - 42.8 °F 93% 30.21 in 10.0 mi Calm Calm - N/A   Overcast
5:15 AM 44.6 °F - 42.8 °F 93% 30.20 in 10.0 mi Calm Calm - N/A   Mostly Cloudy
5:35 AM 44.6 °F - 44.6 °F 100% 30.20 in 10.0 mi Calm Calm - N/A   Scattered Clouds
5:55 AM 44.6 °F 39.2 °F 42.8 °F 93% 30.20 in 10.0 mi ENE 10.4 mph - N/A   Scattered Clouds
6:15 AM 44.6 °F - 44.6 °F 100% 30.22 in 10.0 mi Calm Calm - N/A   Mostly Cloudy
6:35 AM 44.6 °F - 44.6 °F 100% 30.25 in 10.0 mi Calm Calm - N/A   Mostly Cloudy
6:55 AM 44.6 °F - 44.6 °F 100% 30.27 in 10.0 mi Calm Calm - N/A   Overcast
7:15 AM 44.6 °F - 42.8 °F 93% 30.27 in 10.0 mi Calm Calm - N/A   Overcast
7:35 AM 44.6 °F - 42.8 °F 93% 30.28 in 10.0 mi Calm Calm - N/A   Overcast
7:55 AM 44.6 °F - 42.8 °F 93% 30.29 in 10.0 mi Calm Calm - N/A   Overcast
8:15 AM 46.4 °F - 41.0 °F 81% 30.29 in 10.0 mi Calm Calm - N/A   Overcast
8:35 AM 46.4 °F - 41.0 °F 81% 30.30 in 10.0 mi Calm Calm - N/A   Scattered Clouds
8:55 AM 46.4 °F - 41.0 °F 81% 30.30 in 10.0 mi Calm Calm - N/A   Mostly Cloudy
9:15 AM 46.4 °F - 41.0 °F 81% 30.30 in 10.0 mi Calm Calm - N/A   Overcast
9:35 AM 48.2 °F - 41.0 °F 76% 30.30 in 10.0 mi Calm Calm - N/A   Overcast
9:55 AM 50.0 °F - 41.0 °F 71% 30.31 in 10.0 mi Calm Calm - N/A   Overcast
10:15 AM 50.0 °F - 41.0 °F 71% 30.31 in 10.0 mi Calm Calm - N/A   Overcast
10:35 AM 50.0 °F - 41.0 °F 71% 30.32 in 10.0 mi Calm Calm - N/A   Overcast
10:55 AM 51.8 °F - 41.0 °F 67% 30.32 in 10.0 mi Calm Calm - N/A   Overcast
11:15 AM 53.6 °F - 42.8 °F 67% 30.31 in 10.0 mi NNE 6.9 mph - N/A   Overcast
11:35 AM 53.6 °F - 42.8 °F 67% 30.31 in 10.0 mi Calm Calm - N/A   Overcast
11:55 AM 53.6 °F - 42.8 °F 67% 30.31 in 10.0 mi Calm Calm - N/A   Overcast
12:15 PM 53.6 °F - 42.8 °F 67% 30.30 in 10.0 mi Calm Calm - N/A   Overcast
12:35 PM 53.6 °F - 42.8 °F 67% 30.29 in 10.0 mi ENE 5.8 mph - N/A   Overcast
12:55 PM 59.0 °F - 42.8 °F 55% 30.27 in 10.0 mi ENE 4.6 mph - N/A   Overcast
1:15 PM 57.2 °F - 42.8 °F 59% 30.26 in 10.0 mi North 6.9 mph - N/A   Mostly Cloudy
1:35 PM 59.0 °F - 42.8 °F 55% 30.25 in 10.0 mi Calm Calm - N/A   Scattered Clouds
1:55 PM 59.0 °F - 42.8 °F 55% 30.24 in 10.0 mi Calm Calm - N/A   Scattered Clouds
2:15 PM 59.0 °F - 42.8 °F 55% 30.24 in 10.0 mi Calm Calm - N/A   Clear
2:35 PM 60.8 °F - 44.6 °F 55% 30.24 in 10.0 mi Calm Calm - N/A   Scattered Clouds
2:55 PM 60.8 °F - 44.6 °F 55% 30.24 in 10.0 mi Calm Calm - N/A   Mostly Cloudy
3:15 PM 60.8 °F - 44.6 °F 55% 30.22 in 10.0 mi Calm Calm - N/A   Mostly Cloudy
3:35 PM 60.8 °F - 44.6 °F 55% 30.22 in 10.0 mi Calm Calm - N/A   Scattered Clouds
3:55 PM 60.8 °F - 44.6 °F 55% 30.21 in 10.0 mi Calm Calm - N/A   Clear
4:15 PM 60.8 °F - 44.6 °F 55% 30.21 in 10.0 mi Calm Calm - N/A   Clear
4:55 PM 62.6 °F - 44.6 °F 52% 30.21 in 10.0 mi Calm Calm - N/A   Clear
5:15 PM 60.8 °F - 44.6 °F 55% 30.21 in 10.0 mi Calm Calm - N/A   Clear
5:35 PM 60.8 °F - 44.6 °F 55% 30.21 in 10.0 mi Calm Calm - N/A   Clear
5:55 PM 59.0 °F - 44.6 °F 59% 30.21 in 10.0 mi Calm Calm - N/A   Clear
6:15 PM 57.2 °F - 44.6 °F 63% 30.22 in 10.0 mi Calm Calm - N/A   Clear
6:35 PM 53.6 °F - 44.6 °F 72% 30.23 in 10.0 mi Calm Calm - N/A   Clear
6:55 PM 53.6 °F - 44.6 °F 72% 30.23 in 10.0 mi Calm Calm - N/A   Clear
7:15 PM 51.8 °F - 44.6 °F 76% 30.23 in 10.0 mi Calm Calm - N/A   Clear
7:35 PM 51.8 °F - 44.6 °F 76% 30.24 in 10.0 mi Calm Calm - N/A   Clear
7:55 PM 51.8 °F - 44.6 °F 76% 30.25 in 10.0 mi Calm Calm - N/A   Clear
8:15 PM 50.0 °F - 44.6 °F 82% 30.25 in 10.0 mi Calm Calm - N/A   Clear
8:35 PM 48.2 °F - 44.6 °F 87% 30.26 in 10.0 mi Calm Calm - N/A   Clear
8:55 PM 48.2 °F - 46.4 °F 93% 30.26 in 10.0 mi Calm Calm - N/A   Clear
9:15 PM 44.6 °F - 44.6 °F 100% 30.27 in 10.0 mi Calm Calm - N/A   Clear
9:35 PM 44.6 °F - 44.6 °F 100% 30.26 in 10.0 mi Calm Calm - N/A   Clear
9:55 PM 42.8 °F - 42.8 °F 100% 30.26 in 10.0 mi Calm Calm - N/A   Clear
10:15 PM 42.8 °F - - N/A% 30.26 in 10.0 mi Calm Calm - N/A   Clear
10:35 PM 42.8 °F - - N/A% 30.27 in 10.0 mi Calm Calm - N/A   Clear
10:55 PM 41.0 °F - - N/A% 30.27 in 10.0 mi Calm Calm - N/A   Clear
11:15 PM 41.0 °F - - N/A% 30.27 in 10.0 mi Calm Calm - N/A   Clear
11:35 PM 41.0 °F - - N/A% 30.26 in 10.0 mi Calm Calm - N/A   Clear
11:55 PM 41.0 °F - - N/A% 30.26 in 10.0 mi Calm Calm - N/A   Clear